Moose Lake, MN

12:43 AM CDT on August 19, 2017 (GMT -0500)
Moose Lake-Carlton County

Weather History for KMZH - September, 2012

Change the Weather History Date:

Tuesday, September 4, 2012

  Actual Average Record
Temperature  
Mean Temperature 71 °F -  
Max Temperature 87 °F 74 °F 90 °F (1960)
Min Temperature 55 °F 49 °F 30 °F (1974)
Cooling Degree Days 6    
Growing Degree Days 21 (Base 50)    
Moisture  
Dew Point 52 °F    
Average Humidity 60    
Maximum Humidity 88    
Minimum Humidity 22    
Precipitation  
Precipitation 0.00 in - - ()
Sea Level Pressure  
Sea Level Pressure 29.80 in    
Wind  
Wind Speed 2 mph (SW)    
Max Wind Speed 15 mph    
Max Gust Speed 22 mph    
Visibility 9 miles    
Events      
Averages and records for this station are not official NWS values.
T = Trace of Precipitation, MM = Missing Value Source: NWS Daily Summary

Daily Weather History Graph

Daily Weather History Graph

Search for Another Location

Airport or City:

Trip Planner

Search our weather history database for the weather conditions in past years. The results will help you decide how hot, cold, wet, or windy it might be!

Date:

Astronomy

Sep. 04, 2012 Rise Set
Actual Time 6:35 AM CDT 7:43 PM CDT
Civil Twilight 6:04 AM CDT 8:14 PM CDT
Nautical Twilight 5:27 AM CDT 8:51 PM CDT
Astronomical Twilight 4:48 AM CDT 9:30 PM CDT
Moon 9:16 PM CDT (9/4) 11:02 AM CDT (9/4)
Length of Visible Light 14h 09m
Length of Day
13h 07m
Waning Gibbous, 83% of the Moon is Illuminated
Sep 4
Waning Gibbous
Sep 8
Last Quarter
Sep 15
New
Sep 22
First Quarter
Sep 29
Full

Hourly Weather History & Observations

Time (CDT) Temp. Heat Index Dew Point Humidity Pressure Visibility Wind Dir Wind Speed Gust Speed Precip Events Conditions
12:10 AM 60.8 °F - 50.0 °F 68% 29.86 in 10.0 mi Calm Calm - N/A   Clear
12:14 AM 60.8 °F - 50.0 °F 68% 29.86 in 10.0 mi ENE 5.8 mph - N/A   Clear
12:31 AM 62.6 °F - 50.0 °F 63% 29.87 in 10.0 mi Calm Calm - N/A   Clear
12:35 AM 62.6 °F - 51.8 °F 68% 29.87 in 10.0 mi Calm Calm - N/A   Clear
12:51 AM 60.8 °F - 50.0 °F 68% 29.86 in 10.0 mi Calm Calm - N/A   Clear
12:54 AM 60.8 °F - 50.0 °F 68% 29.86 in 10.0 mi Calm Calm - N/A   Clear
1:11 AM 59.0 °F - 50.0 °F 72% 29.86 in 10.0 mi Calm Calm - N/A   Clear
1:14 AM 59.0 °F - 50.0 °F 72% 29.86 in 10.0 mi Calm Calm - N/A   Clear
1:30 AM 59.0 °F - 51.8 °F 77% 29.87 in 10.0 mi Calm Calm - N/A   Clear
1:35 AM 57.2 °F - 51.8 °F 82% 29.87 in 10.0 mi Calm Calm - N/A   Clear
1:50 AM 57.2 °F - 50.0 °F 77% 29.87 in 10.0 mi Calm Calm - N/A   Clear
1:55 AM 55.4 °F - 50.0 °F 82% 29.87 in 10.0 mi Calm Calm - N/A   Clear
2:10 AM 55.4 °F - 51.8 °F 88% 29.87 in 10.0 mi Calm Calm - N/A   Clear
2:14 AM 57.2 °F - 51.8 °F 82% 29.87 in 10.0 mi Calm Calm - N/A   Clear
2:30 AM 55.4 °F - 51.8 °F 88% 29.87 in 10.0 mi Calm Calm - N/A   Clear
2:35 AM 55.4 °F - 51.8 °F 88% 29.87 in 10.0 mi Calm Calm - N/A   Clear
2:50 AM 57.2 °F - 51.8 °F 82% 29.87 in 10.0 mi Calm Calm - N/A   Clear
2:54 AM 57.2 °F - 51.8 °F 82% 29.86 in 10.0 mi Calm Calm - N/A   Clear
3:11 AM 55.4 °F - 50.0 °F 82% 29.86 in 10.0 mi Calm Calm - N/A   Clear
3:15 AM 55.4 °F - 50.0 °F 82% 29.86 in 10.0 mi Calm Calm - N/A   Clear
3:30 AM 55.4 °F - 51.8 °F 88% 29.86 in 10.0 mi Calm Calm - N/A   Clear
3:35 AM 57.2 °F - 51.8 °F 82% 29.86 in 10.0 mi Calm Calm - N/A   Clear
3:50 AM 57.2 °F - 51.8 °F 82% 29.87 in 10.0 mi Calm Calm - N/A   Clear
3:54 AM 57.2 °F - 51.8 °F 82% 29.87 in 10.0 mi Calm Calm - N/A   Clear
4:10 AM 57.2 °F - 51.8 °F 82% 29.86 in 10.0 mi Calm Calm - N/A   Clear
4:14 AM 55.4 °F - 51.8 °F 88% 29.86 in 10.0 mi Calm Calm - N/A   Clear
4:31 AM 55.4 °F - 51.8 °F 88% 29.86 in 10.0 mi Calm Calm - N/A   Clear
4:34 AM 55.4 °F - 50.0 °F 82% 29.86 in 10.0 mi Calm Calm - N/A   Clear
4:50 AM 55.4 °F - 51.8 °F 88% 29.86 in 10.0 mi Calm Calm - N/A   Clear
4:55 AM 55.4 °F - 51.8 °F 88% 29.86 in 10.0 mi Calm Calm - N/A   Clear
5:10 AM 57.2 °F - 51.8 °F 82% 29.86 in 7.0 mi Calm Calm - N/A   Clear
5:15 AM 55.4 °F - 51.8 °F 88% 29.86 in 10.0 mi Calm Calm - N/A   Clear
5:30 AM 55.4 °F - 51.8 °F 88% 29.86 in 10.0 mi NNE 4.6 mph - N/A   Clear
5:34 AM 55.4 °F - 51.8 °F 88% 29.85 in 10.0 mi NNE 3.5 mph - N/A   Clear
5:50 AM 55.4 °F - 51.8 °F 88% 29.85 in 10.0 mi Calm Calm - N/A   Clear
5:54 AM 55.4 °F - 51.8 °F 88% 29.85 in 10.0 mi Calm Calm - N/A   Clear
6:11 AM 55.4 °F - 50.0 °F 82% 29.84 in 10.0 mi Calm Calm - N/A   Clear
6:14 AM 55.4 °F - 50.0 °F 82% 29.84 in 10.0 mi Calm Calm - N/A   Clear
6:31 AM 55.4 °F - 50.0 °F 82% 29.84 in 10.0 mi Calm Calm - N/A   Clear
6:34 AM 55.4 °F - 50.0 °F 82% 29.84 in 10.0 mi Calm Calm - N/A   Clear
6:51 AM 55.4 °F - 50.0 °F 82% 29.85 in 10.0 mi Calm Calm - N/A   Clear
6:54 AM 55.4 °F - 50.0 °F 82% 29.85 in 10.0 mi Calm Calm - N/A   Clear
7:11 AM 55.4 °F - 50.0 °F 82% 29.86 in 10.0 mi Calm Calm - N/A   Clear
7:14 AM 55.4 °F - 50.0 °F 82% 29.86 in 10.0 mi Calm Calm - N/A   Clear
7:30 AM 57.2 °F - 51.8 °F 82% 29.85 in 10.0 mi Calm Calm - N/A   Clear
7:35 AM 57.2 °F - 51.8 °F 82% 29.85 in 10.0 mi Calm Calm - N/A   Clear
7:50 AM 59.0 °F - 51.8 °F 77% 29.85 in 10.0 mi Calm Calm - N/A   Clear
7:55 AM 60.8 °F - 51.8 °F 72% 29.85 in 10.0 mi Calm Calm - N/A   Clear
8:10 AM 62.6 °F - 51.8 °F 68% 29.85 in 10.0 mi Calm Calm - N/A   Clear
8:14 AM 62.6 °F - 51.8 °F 68% 29.85 in 10.0 mi Calm Calm - N/A   Clear
8:31 AM 64.4 °F - 51.8 °F 64% 29.85 in 10.0 mi Calm Calm - N/A   Clear
8:34 AM 64.4 °F - 51.8 °F 64% 29.85 in 10.0 mi Calm Calm - N/A   Scattered Clouds
8:50 AM 68.0 °F - 51.8 °F 56% 29.84 in 10.0 mi Calm Calm - N/A   Scattered Clouds
8:54 AM 68.0 °F - 50.0 °F 52% 29.84 in 10.0 mi Calm Calm - N/A   Scattered Clouds
9:11 AM 68.0 °F - 51.8 °F 56% 29.84 in 10.0 mi Calm Calm - N/A   Clear
9:15 AM 69.8 °F - 51.8 °F 53% 29.84 in 10.0 mi Calm Calm - N/A   Clear
9:30 AM 69.8 °F - 51.8 °F 53% 29.84 in 10.0 mi Calm Calm - N/A   Clear
9:34 AM 69.8 °F - 51.8 °F 53% 29.84 in 10.0 mi Calm Calm - N/A   Clear
9:55 AM 71.6 °F - 53.6 °F 53% 29.83 in 10.0 mi Calm Calm - N/A   Clear
10:11 AM 73.4 °F - 53.6 °F 50% 29.83 in 10.0 mi Calm Calm - N/A   Clear
10:15 AM 73.4 °F - 53.6 °F 50% 29.82 in 10.0 mi Calm Calm - N/A   Clear
10:31 AM 73.4 °F - 55.4 °F 53% 29.82 in 10.0 mi SE 3.5 mph - N/A   Clear
10:34 AM 73.4 °F - 55.4 °F 53% 29.82 in 10.0 mi SE 3.5 mph - N/A   Clear
10:50 AM 77.0 °F - 55.4 °F 47% 29.81 in 10.0 mi Calm Calm - N/A   Clear
10:54 AM 77.0 °F - 57.2 °F 50% 29.81 in 10.0 mi SSE 4.6 mph - N/A   Clear
11:15 AM 80.6 °F 81.1 °F 59.0 °F 48% 29.80 in 10.0 mi SSE 4.6 mph - N/A   Clear
11:32 AM 80.6 °F 81.1 °F 59.0 °F 48% 29.79 in 10.0 mi South 9.2 mph - N/A   Scattered Clouds
11:34 AM 80.6 °F 81.1 °F 59.0 °F 48% 29.79 in 10.0 mi South 8.1 mph - N/A   Scattered Clouds
11:50 AM 82.4 °F 82.5 °F 59.0 °F 45% 29.78 in 10.0 mi South 9.2 mph - N/A   Clear
11:54 AM 82.4 °F 82.0 °F 57.2 °F 42% 29.78 in 10.0 mi South 6.9 mph - N/A   Clear
12:11 PM 82.4 °F 81.7 °F 55.4 °F 39% 29.77 in 10.0 mi SSW 8.1 mph - N/A   Clear
12:15 PM 82.4 °F 81.7 °F 55.4 °F 39% 29.77 in 10.0 mi SSW 6.9 mph - N/A   Clear
12:30 PM 84.2 °F 82.8 °F 53.6 °F 35% 29.77 in 10.0 mi SSE 5.8 mph 9.2 mph N/A   Clear
12:34 PM 84.2 °F 82.8 °F 53.6 °F 35% 29.77 in 10.0 mi South 4.6 mph 9.2 mph N/A   Clear
12:50 PM 86.0 °F - 51.8 °F 31% 29.77 in 10.0 mi SSW 5.8 mph - N/A   Scattered Clouds
12:54 PM 86.0 °F - 51.8 °F 31% 29.76 in 10.0 mi SSW 6.9 mph - N/A   Scattered Clouds
1:11 PM 86.0 °F - 50.0 °F 29% 29.76 in 10.0 mi South 8.1 mph 17.3 mph N/A   Clear
1:14 PM 86.0 °F - 50.0 °F 29% 29.76 in 10.0 mi South 6.9 mph - N/A   Clear
1:30 PM 87.8 °F - 46.4 °F 24% 29.75 in 10.0 mi SW 10.4 mph 18.4 mph N/A   Clear
1:35 PM 86.0 °F - 44.6 °F 23% 29.75 in 10.0 mi SW 12.7 mph 18.4 mph N/A   Clear
1:50 PM 86.0 °F - 44.6 °F 23% 29.75 in 10.0 mi SW 11.5 mph 21.9 mph N/A   Clear
1:55 PM 87.8 °F - 44.6 °F 22% 29.75 in 10.0 mi SW 15.0 mph 21.9 mph N/A   Clear
2:10 PM 87.8 °F - 44.6 °F 22% 29.74 in 10.0 mi SSW 10.4 mph 17.3 mph N/A   Clear
2:15 PM 87.8 °F - 44.6 °F 22% 29.74 in 10.0 mi SSW 11.5 mph 19.6 mph N/A   Clear
2:30 PM 86.0 °F - 46.4 °F 25% 29.74 in 10.0 mi SSW 10.4 mph - N/A   Clear
2:34 PM 87.8 °F - 46.4 °F 24% 29.74 in 10.0 mi WSW 12.7 mph - N/A   Clear
2:54 PM 87.8 °F - 46.4 °F 24% 29.74 in 10.0 mi SSW 11.5 mph 18.4 mph N/A   Clear
3:10 PM 86.0 °F - 42.8 °F 22% 29.74 in 10.0 mi SW 8.1 mph 17.3 mph N/A   Scattered Clouds
3:14 PM 87.8 °F - 44.6 °F 22% 29.74 in 10.0 mi SW 10.4 mph 17.3 mph N/A   Clear
3:30 PM 86.0 °F - 46.4 °F 25% 29.74 in 10.0 mi WSW 11.5 mph 16.1 mph N/A   Clear
3:34 PM 87.8 °F - 46.4 °F 24% 29.74 in 10.0 mi WSW 12.7 mph 18.4 mph N/A   Clear
3:51 PM 86.0 °F - 44.6 °F 23% 29.74 in 10.0 mi West 8.1 mph 17.3 mph N/A   Clear
3:56 PM 86.0 °F - 44.6 °F 23% 29.75 in 10.0 mi WSW 11.5 mph 17.3 mph N/A   Clear
4:10 PM 84.2 °F - 46.4 °F 27% 29.75 in 10.0 mi WSW 8.1 mph 17.3 mph N/A   Clear
4:14 PM 84.2 °F - 46.4 °F 27% 29.75 in 10.0 mi West 10.4 mph 16.1 mph N/A   Clear
4:30 PM 82.4 °F - 46.4 °F 28% 29.75 in 10.0 mi WSW 9.2 mph - N/A   Clear
4:34 PM 82.4 °F - 46.4 °F 28% 29.75 in 10.0 mi West 11.5 mph 17.3 mph N/A   Clear
4:50 PM 82.4 °F - 46.4 °F 28% 29.74 in 10.0 mi West 10.4 mph - N/A   Clear
4:55 PM 82.4 °F - 46.4 °F 28% 29.74 in 10.0 mi West 10.4 mph - N/A   Clear
5:10 PM 82.4 °F - 46.4 °F 28% 29.74 in 10.0 mi West 11.5 mph 16.1 mph N/A   Clear
5:15 PM 82.4 °F - 46.4 °F 28% 29.74 in 10.0 mi WSW 9.2 mph - N/A   Clear
5:30 PM 80.6 °F - 46.4 °F 30% 29.74 in 10.0 mi West 8.1 mph - N/A   Clear
5:34 PM 80.6 °F - 48.2 °F 32% 29.74 in 10.0 mi WSW 8.1 mph - N/A   Clear
5:51 PM 80.6 °F - 48.2 °F 32% 29.74 in 10.0 mi West 5.8 mph - N/A   Clear
5:54 PM 80.6 °F - 48.2 °F 32% 29.74 in 10.0 mi West 4.6 mph - N/A   Clear
6:10 PM 80.6 °F - 50.0 °F 34% 29.74 in 10.0 mi Calm Calm - N/A   Clear
6:14 PM 80.6 °F - 50.0 °F 34% 29.74 in 10.0 mi Calm Calm - N/A   Clear
6:31 PM 78.8 °F - 51.8 °F 39% 29.74 in 10.0 mi Calm Calm - N/A   Clear
6:35 PM 78.8 °F - 51.8 °F 39% 29.74 in 10.0 mi Calm Calm - N/A   Clear
6:50 PM 78.8 °F - 51.8 °F 39% 29.74 in 10.0 mi Calm Calm - N/A   Clear
6:55 PM 78.8 °F - 51.8 °F 39% 29.74 in 10.0 mi Calm Calm - N/A   Clear
7:10 PM 77.0 °F - 53.6 °F 44% 29.75 in 10.0 mi Calm Calm - N/A   Clear
7:14 PM 77.0 °F - 53.6 °F 44% 29.75 in 10.0 mi Calm Calm - N/A   Clear
7:30 PM 73.4 °F - 55.4 °F 53% 29.75 in 10.0 mi Calm Calm - N/A   Clear
7:35 PM 71.6 °F - 55.4 °F 57% 29.75 in 10.0 mi Calm Calm - N/A   Clear
7:50 PM 69.8 °F - 57.2 °F 64% 29.76 in 10.0 mi Calm Calm - N/A   Clear
7:55 PM 68.0 °F - 57.2 °F 68% 29.76 in 10.0 mi Calm Calm - N/A   Clear
8:11 PM 66.2 °F - 57.2 °F 73% 29.77 in 10.0 mi Calm Calm - N/A   Clear
8:14 PM 66.2 °F - 57.2 °F 73% 29.77 in 10.0 mi Calm Calm - N/A   Clear
8:30 PM 64.4 °F - 55.4 °F 73% 29.77 in 10.0 mi Calm Calm - N/A   Scattered Clouds
8:34 PM 64.4 °F - 55.4 °F 73% 29.77 in 10.0 mi Calm Calm - N/A   Scattered Clouds
8:50 PM 64.4 °F - 57.2 °F 77% 29.77 in 10.0 mi Calm Calm - N/A   Scattered Clouds
8:55 PM 64.4 °F - 57.2 °F 77% 29.77 in 10.0 mi Calm Calm - N/A   Scattered Clouds
9:11 PM 62.6 °F - 57.2 °F 82% 29.76 in 10.0 mi Calm Calm - N/A   Scattered Clouds
9:14 PM 62.6 °F - 57.2 °F 82% 29.76 in 10.0 mi Calm Calm - N/A   Scattered Clouds
9:30 PM 62.6 °F - 55.4 °F 77% 29.75 in 10.0 mi Calm Calm - N/A   Mostly Cloudy
9:35 PM 62.6 °F - 55.4 °F 77% 29.75 in 7.0 mi Calm Calm - N/A   Scattered Clouds
9:50 PM 62.6 °F - 55.4 °F 77% 29.75 in 0.5 mi Calm Calm - N/A   Haze
9:55 PM 60.8 °F - 55.4 °F 82% 29.74 in 0.2 mi Calm Calm - N/A   Haze
10:10 PM 60.8 °F - 55.4 °F 82% 29.75 in 0.5 mi Calm Calm - N/A   Haze
10:14 PM 60.8 °F - 55.4 °F 82% 29.75 in 0.2 mi Calm Calm - N/A   Haze
10:30 PM 60.8 °F - 55.4 °F 82% 29.76 in 0.5 mi Calm Calm - N/A   Haze
10:34 PM 60.8 °F - 55.4 °F 82% 29.75 in 0.5 mi Calm Calm - N/A   Haze
10:54 PM 59.0 °F - 53.6 °F 82% 29.76 in 5.0 mi Calm Calm - N/A   Haze
11:10 PM 59.0 °F - 53.6 °F 82% 29.75 in 0.8 mi Calm Calm - N/A   Haze
11:14 PM 59.0 °F - 53.6 °F 82% 29.75 in 1.0 mi Calm Calm - N/A   Haze
11:30 PM 59.0 °F - 53.6 °F 82% 29.77 in 1.0 mi Calm Calm - N/A   Mostly Cloudy
11:34 PM 59.0 °F - 53.6 °F 82% 29.77 in 1.0 mi Calm Calm - N/A   Haze
11:50 PM 59.0 °F - 53.6 °F 82% 29.75 in 7.0 mi Calm Calm - N/A   Mostly Cloudy
11:54 PM 59.0 °F - 53.6 °F 82% 29.75 in 7.0 mi Calm Calm - N/A   Mostly Cloudy